Location: Friedrichswalde
(53.4178°N, 14.9080°E)
Time: 23:21:06
(UTC+00:00)

Daily predictions for brighter satellites

Satellite Brightness Start Highest point End
(mag) Time Altitude Azimuth Time Altitude Azimuth Time Altitude Azimuth
USA 215 3.6 16:52:05 10° ENE 16:58:30 53° SE 17:04:50 10° SW
Cosmos 2279 Rocket 4.0 16:55:09 10° N 17:01:27 84° ENE 17:07:44 10° SSE
Aureole 1 4.4 17:00:07 10° SSW 17:03:15 68° ESE 17:07:04 10° NNE
Cosmos 1850 Rocket 4.2 16:58:12 10° S 17:03:15 50° ESE 17:08:21 10° NE
Cosmos 1844 Rocket 3.5 17:00:03 10° NNW 17:05:15 35° NE 17:10:25 10° ESE
Cosmos 2369 3.8 16:59:54 10° SSW 17:05:32 62° ESE 17:11:10 10° NE
Cosmos 1954 Rocket 4.4 17:00:36 10° SW 17:05:45 69° WNW 17:10:58 10° NNE
Cosmos 1733 Rocket 3.2 17:02:09 10° S 17:06:31 58° E 17:10:55 10° NNE
Cosmos 2221 Rocket 3.6 17:03:42 10° N 17:08:16 81° E 17:12:48 10° SSE
COBE Rocket 3.9 17:04:57 10° SSE 17:09:40 56° ENE 17:14:17 10° N
Cosmos 1943 Rocket 4.4 17:07:43 10° NNW 17:10:01 12° N 17:12:20 10° NNE
Cosmos 2278 4.2 17:06:13 10° S 17:11:27 39° ESE 17:16:41 10° NE
Cosmos 1570 Rocket 4.2 17:07:07 10° NNW 17:12:18 54° ENE 17:17:26 10° SE
SL-16 R/B 3.3 17:08:28 10° SSE 17:12:39 22° ESE 17:16:50 10° NE
SKYMED 3 4.5 17:10:25 10° NNE 17:14:30 56° ESE 17:18:32 10° S
PAYLOAD B 4.3 17:09:28 10° SSE 17:14:59 88° ENE 17:20:32 10° NNW
BREEZE-M DEB (TANK) 4.1 17:17:37 10° WSW 17:19:15 18° SSW 17:21:18 10° SSE
Cosmos 2278 Rocket 4.1 17:15:49 10° NNW 17:19:17 16° NNE 17:22:46 10° ENE
COSMO-SKYMED 1 2.5 17:19:39 10° NNE 17:24:03 82° ESE 17:28:23 10° SSW
Cosmos 2263 Rocket 2.8 17:19:04 10° NW 17:24:43 64° WSW 17:30:19 10° SSE
Resurs 01 Rocket 3.6 17:23:46 10° ENE 17:25:38 13° NE 17:27:33 10° NNE
Meteor 1-24 Rocket 4.0 17:21:14 10° N 17:26:15 41° ENE 17:31:18 10° SE
Cosmos 1975 4.4 17:22:43 10° SW 17:26:33 40° WNW 17:30:22 10° N
Cosmos 2369 Rocket 4.5 17:25:26 10° NW 17:28:23 14° N 17:31:21 10° NNE
SJ-6B 3.9 17:26:35 11° ESE 17:29:28 24° ENE 17:32:35 10° N
Spot 1 4.0 17:25:22 10° NNE 17:29:33 56° ESE 17:33:34 10° S
ASTEX 1 3.4 17:25:00 10° N 17:30:00 88° E 17:35:01 10° S
Cosmos 1437 Rocket 3.5 17:28:27 10° SSE 17:31:42 29° E 17:34:58 10° NNE
H-2A R/B 4.2 17:30:45 12° ENE 17:31:57 14° NE 17:33:53 10° NNE
HJ-1C 3.1 17:30:20 10° SSE 17:33:25 68° ENE 17:36:32 10° N
Cosmos 1741 Rocket 4.0 17:29:24 10° SSW 17:34:41 80° ESE 17:39:58 10° NNE
Cosmos 1814 Rocket 4.2 17:30:53 10° NNW 17:36:11 79° WSW 17:41:22 10° SSE
USA 267 4.0 17:29:52 10° SE 17:36:13 51° SW 17:42:35 10° WNW
Feng Yun 1-1 Rocket 4.2 17:31:01 10° SSE 17:36:24 63° ENE 17:41:45 10° NNW
IRIDIUM 104 4.3 17:31:50 10° SSE 17:36:58 62° E 17:42:08 10° N
SL-4 R/B 3.5 17:33:44 10° W 17:37:45 35° SSW 17:41:56 10° SE
Cosmos 1844 4.1 17:34:23 10° NNW 17:39:45 46° NE 17:44:18 14° ESE
Cosmos 2084 Rocket 3.1 17:36:13 10° NW 17:40:04 82° NE 17:43:23 14° SE
Cosmos 2208 Rocket 4.1 17:35:32 10° NNW 17:40:56 70° ENE 17:46:21 10° SE
Cosmos 2227 4.4 17:36:26 10° NW 17:42:04 74° WSW 17:47:40 10° SSE
Cosmos 1805 3.7 17:39:21 10° SSW 17:43:12 64° WNW 17:47:05 10° N
Cosmos 1242 Rocket 3.7 17:41:06 10° SSW 17:44:32 46° WNW 17:47:57 10° N
IRIDIUM 114 4.3 17:40:54 10° S 17:46:05 73° E 17:51:20 10° N
Okean-O 3.3 17:42:56 14° SE 17:46:17 34° ENE 17:50:18 10° N
ISS -0.8 17:45:59 10° WSW 17:47:11 11° SW 17:48:22 10° SSW
Cosmos 489 Rocket 4.5 17:41:48 10° S 17:48:02 63° ESE 17:54:17 10° NNE
CZ-4 R/B 1.4 17:44:51 10° SSE 17:49:03 81° ENE 17:53:14 10° NNW
Cosmos 1697 Rocket 3.7 17:44:38 10° WSW 17:50:03 47° NW 17:55:31 10° NNE
IGS 5A 4.0 17:48:12 15° SE 17:51:13 37° ENE 17:55:04 10° N
BREEZE M DEB (TANK) 4.2 17:48:24 10° SSW 17:51:51 16° SSE 17:53:02 14° SE
CSL-04 Debris 4.3 17:47:10 10° SE 17:52:23 52° ENE 17:57:38 10° N
Meteor 1-12 Rocket 4.3 17:46:27 10° S 17:52:24 67° E 17:58:23 10° NNE
OBJECT-B 0.6 17:54:14 33° ESE 17:54:47 39° ENE 17:57:11 10° N
Cosmos 1908 Rocket 3.5 17:50:33 10° S 17:54:49 64° E 17:59:08 10° NNE
IRIDIUM 103 4.3 17:50:01 10° S 17:55:14 85° E 18:00:30 10° N
Meteor 2-21 4.4 17:49:29 10° S 17:55:32 88° E 18:01:38 10° NNE
USA 81 4.3 17:51:34 10° N 17:56:43 49° ENE 18:01:49 10° SSE
Cosmos 2360 Rocket 3.2 17:52:57 10° SSE 17:57:15 23° ESE 18:01:32 10° NE
Cosmos 1766 3.4 17:59:06 10° SSW 18:03:01 78° W 18:07:00 10° N
Cosmos 1782 Rocket 3.8 17:58:56 10° SSE 18:03:03 44° E 18:07:13 10° NNE
Cosmos 1025 Rocket 3.1 18:00:20 10° N 18:04:36 54° ENE 18:07:56 16° SSE
YAOGAN 1 3.4 18:03:11 10° S 18:07:24 52° W 18:11:39 10° NNW
ATLAS 2AS CENTAUR R/B 3.8 18:01:43 10° WNW 18:08:35 37° N 18:14:11 14° ENE
Cosmos 2026 Rocket 4.0 18:03:20 10° SSE 18:09:09 52° E 18:15:03 10° NNE
Cosmos 968 Rocket 3.5 18:04:45 10° S 18:09:55 62° ESE 18:15:05 10° NNE
Okean O Rocket 2.3 18:06:55 10° S 18:11:13 57° WSW 18:15:34 10° NNW
Meteor 2-5 Rocket 3.7 18:08:40 10° NNW 18:14:14 84° WSW 18:19:46 10° S
Cosmos 2084 4.4 18:10:58 10° W 18:14:35 40° NNW 18:17:56 12° NE
Lacrosse 4 Rocket 2.3 18:11:08 10° S 18:13:56 27° SE 18:13:56 27° SE
Nadezhda 4 Rocket 4.1 18:10:46 10° SSW 18:17:07 80° WNW 18:23:27 10° N
Cosmos 1553 Rocket 4.2 18:11:05 10° N 18:17:18 53° ENE 18:21:53 19° SE
CSL-04 Rocket 3.6 18:13:27 12° SSE 18:18:21 72° ENE 18:23:48 10° NNW
Meteor 1-15 Rocket 4.1 18:13:13 10° S 18:18:48 87° ESE 18:24:25 10° NNE
NOSS 3-4 (A) 4.1 18:14:08 10° NW 18:20:31 53° NNE 18:24:38 26° E
NOSS 3-4 (C) 4.1 18:14:13 10° NW 18:20:38 53° NNE 18:24:44 26° E
USA 186 1.8 18:22:42 31° SSE 18:24:12 88° ENE 18:27:35 10° NNW
Cosmos 1726 3.9 18:21:57 10° SW 18:25:19 34° WNW 18:28:43 10° N
Cosmos 2322 Rocket 2.3 18:20:22 10° S 18:25:50 50° ESE 18:31:21 10° NE
Cosmos 2237 4.3 18:20:56 10° S 18:26:26 51° ESE 18:31:58 10° NE
Cosmos 1536 Rocket 4.3 18:23:34 10° N 18:27:30 32° ENE 18:27:34 32° ENE
Landsat 7 3.8 18:25:23 29° SE 18:27:40 60° ENE 18:32:21 10° N
SPOT 1/Viking Rocket 4.1 18:27:16 33° E 18:28:41 39° ENE 18:33:27 10° N
Cosmos 1975 Rocket 3.0 18:25:12 10° NNW 18:29:40 85° W 18:33:08 16° S
Cosmos 1470 2.6 18:25:59 10° S 18:29:50 88° E 18:33:41 10° NNE
deb Chang Zheng 4 3.7 18:29:32 42° E 18:30:12 47° ENE 18:34:12 10° N
Cosmos 1980 Rocket 3.3 18:26:47 10° WSW 18:32:10 44° NW 18:37:34 10° NNE
Ariane Rocket 3.8 18:36:14 31° ENE 18:36:47 32° ENE 18:41:16 10° N
CRYOSAT 2 4.3 18:34:33 10° S 18:39:28 88° W 18:44:25 10° N
Cosmos 1758 3.7 18:40:19 44° ENE 18:40:19 44° ENE 18:43:31 10° NNE
Cosmos 2292 Rocket 3.9 18:35:17 10° SSW 18:40:04 62° WNW 18:43:45 10° N
USA 215 3.3 18:36:54 19° ENE 18:41:48 81° NNW 18:48:21 10° WSW
USA 281 4.2 18:40:48 24° ENE 18:43:06 30° NE 18:48:39 10° NNW
Aureole 1 Rocket 4.4 18:37:13 10° S 18:43:44 38° ESE 18:49:02 10° NE
IRS-1C Rocket 4.1 18:43:42 21° SSE 18:47:20 81° WSW 18:52:38 10° NNW
Cosmos 1844 Rocket 3.1 18:43:54 10° NW 18:49:31 63° WSW 18:52:59 24° S
Landsat 5 3.6 18:49:28 10° NNE 18:54:01 87° WNW 18:58:28 10° SSW
Cosmos 1943 Rocket 3.8 18:52:09 10° NNW 18:56:05 19° NNE 18:57:29 18° NE
SL-16 R/B 2.2 18:50:25 10° SSW 18:56:06 83° WNW 19:01:50 10° NNE
Cosmos 1092 Rocket 4.3 18:52:21 10° SSW 18:58:39 70° WNW 19:04:55 10° N
Resurs 01 Rocket 1.5 19:01:19 67° ENE 19:01:19 67° ENE 19:05:44 10° N
Terra 3.6 19:03:49 19° NE 19:03:49 19° NE 19:06:19 10° N
SJ-6B 4.0 19:02:07 24° SSW 19:03:52 39° W 19:07:29 10° NNW
Cosmos 2278 Rocket 2.8 18:59:45 10° NNW 19:05:03 38° NE 19:05:41 37° ENE
H-2A R/B 2.4 19:07:12 72° NNW 19:07:12 72° NNW 19:10:40 10° NNW
MetOp-B 4.3 19:08:30 52° ENE 19:08:43 53° ENE 19:13:56 10° N
Gbstr 26 Del rocket 4.4 19:01:38 10° WSW 19:09:28 79° S 19:12:38 42° E
Cosmos 1703 3.6 19:07:01 10° NNW 19:10:10 58° NNW 19:10:10 58° NNW
Resurs 1-3 4.3 19:11:26 35° SSW 19:12:57 52° W 19:17:16 10° NNW
Sich 1 Rocket 4.4 19:15:06 40° NNE 19:15:06 40° NNE 19:18:01 10° NNE
Cosmos 2369 Rocket 4.3 19:11:26 10° NNW 19:14:57 16° NNE 19:17:02 14° NE
Cosmos 921 Rocket 3.3 19:11:37 10° NNW 19:15:35 62° NNE 19:15:35 62° NNE
IRS-1A Rocket 4.2 19:15:25 58° SE 19:16:34 79° ENE 19:22:25 10° NNW
MetOp-A 3.7 19:17:19 64° WNW 19:17:19 64° WNW 19:21:01 10° NNW
Cosmos 1375 Rocket 4.5 19:13:00 10° NW 19:19:34 76° NE 19:20:49 59° ESE
Cosmos 783 Rocket 4.4 19:16:56 10° NNW 19:22:14 80° WSW 19:22:48 69° S
Okean-O 4.0 19:20:29 22° SSW 19:22:45 36° W 19:26:51 10° NNW
CZ-4 R/B 4.4 19:22:15 10° WSW 19:24:31 14° W 19:26:48 10° NW
OBJECT-B 3.8 19:24:56 10° W 19:24:56 10° W 19:25:17 10° W
Cosmos 1486 Rocket 4.0 19:20:03 10° SSW 19:25:23 84° WNW 19:30:46 10° NNE
Cosmos 2266 Rocket 4.0 19:26:59 62° E 19:27:07 62° E 19:33:24 10° NNE
Cosmos 1655 Rocket 4.0 19:28:46 58° ENE 19:28:46 58° ENE 19:34:35 10° NNE
S3M 3.9 19:22:21 10° NNW 19:28:38 86° W 19:30:09 55° S
DNEPR-1 R/B 3.9 19:24:51 10° SW 19:29:46 89° SE 19:30:36 66° NE
Cosmos 773 Rocket 4.2 19:25:07 10° NNW 19:30:24 67° WSW 19:31:00 61° SSW
Spot 2 4.5 19:31:04 61° WNW 19:31:04 61° WNW 19:35:02 10° NNW
Meteor 1-21 Rocket 4.1 19:25:17 10° NNW 19:30:52 82° W 19:31:34 68° S
Cosmos 2333 Rocket 4.0 19:36:34 19° NE 19:36:34 19° NE 19:38:03 10° NE
Cosmos 1300 Rocket 4.5 19:30:15 24° SW 19:32:28 46° WNW 19:36:43 10° N
Meteor 1-11 4.5 19:28:09 10° N 19:33:09 54° NE 19:33:09 54° NE
SPOT 5 3.9 19:36:14 34° NNE 19:36:14 34° NNE 19:39:12 10° N
Cosmos 2360 Rocket 2.2 19:34:59 10° SW 19:40:39 79° WNW 19:46:20 10° NNE
Cosmos 158 Rocket 4.2 19:40:29 10° NNW 19:44:48 61° WNW 19:44:48 61° WNW
Cosmos 883 Rocket 4.4 19:40:45 10° N 19:47:09 89° WSW 19:47:37 79° S
Lacrosse 4 Rocket 3.7 19:49:09 10° WSW 19:50:17 18° WSW 19:50:17 18° WSW
ATLAS 2AS CENTAUR R/B 3.0 19:53:46 10° NW 20:00:57 55° NNE 20:01:35 53° NE
ERS-1 Rocket 4.0 20:07:13 40° N 20:07:13 40° N 20:10:28 10° NNW
Cosmos 2322 Rocket 3.4 20:04:39 10° WSW 20:10:03 41° NW 20:15:28 10° NNE
NOSS 3-4 (A) 3.9 20:05:01 10° NW 20:11:44 63° SW 20:12:04 63° SW
NOSS 3-4 (C) 3.9 20:05:07 10° NW 20:11:51 64° SW 20:12:10 63° SW
SPOT 3 Rocket 4.3 20:15:04 49° NW 20:15:04 49° NW 20:18:54 10° NNW
Ariane Rocket 3.9 20:16:26 45° WNW 20:16:26 45° WNW 20:20:34 10° NNW
USA 215 3.4 20:24:15 65° NNE 20:24:39 66° N 20:31:08 10° WNW
USA 281 3.3 20:27:40 74° NNW 20:27:40 74° NNW 20:33:37 10° NNW
Aureole 1 Rocket 4.5 20:20:57 10° SW 20:27:48 54° WNW 20:33:10 10° NNE
ADEOS Rocket 4.3 20:32:19 27° NNE 20:32:19 27° NNE 20:35:35 10° N
Resurs 01 Rocket 4.1 20:38:53 18° WNW 20:38:53 18° WNW 20:41:23 10° NW
Terra 3.7 20:42:42 27° NNW 20:42:42 27° NNW 20:44:54 10° NNW
Cosmos 1943 Rocket 3.4 20:35:36 10° NNW 20:38:59 36° N 20:38:59 36° N
SL-16 R/B 4.2 20:36:24 10° W 20:41:04 25° NW 20:45:44 10° NNE
Cosmos 2278 Rocket 3.4 20:43:51 10° NW 20:47:32 38° WNW 20:47:32 38° WNW
Cosmos 2369 Rocket 3.8 20:55:23 10° NNW 20:58:48 29° N 20:58:48 29° N
Cosmos 2219 Rocket 4.1 21:05:13 22° NNE 21:05:13 22° NNE 21:07:18 10° NNE
SJ 16-02 4.4 21:16:01 11° N 21:16:01 11° N 21:16:19 10° N
Cosmos 2333 Rocket 3.8 21:18:31 30° NNW 21:18:31 30° NNW 21:22:17 10° NNE
Cosmos 2360 Rocket 4.2 21:20:59 10° W 21:25:33 24° NNW 21:30:07 10° NNE
ATLAS 2AS CENTAUR R/B 4.0 21:45:04 10° NW 21:49:00 34° WNW 21:49:00 34° WNW
Cosmos 2237 Rocket 4.4 23:13:47 21° N 23:13:47 21° N 23:16:17 10° NNE
Cosmos 1980 Rocket 4.3 23:45:57 10° NNW 23:50:21 23° NNE 23:51:09 22° NE
